Location: Lafig�re
(44.4503°N, 4.0357°E)
Time: 20:04:46
(UTC+00:00)

ISS - Visible Passes

Search period start: 25 November 2020 00:00
Search period end: 05 December 2020 00:00
Orbit: 418 x 421 km, 51.6° (Epoch: 26 November)

Date Brightness Start Highest point End Pass type
(mag) Time Alt. Az. Time Alt. Az. Time Alt. Az.
25 Nov -2.5 17:57:36 10° W 18:00:40 31° NNW 18:00:57 31° N visible
26 Nov -2.9 17:09:53 10° W 17:13:05 40° NNW 17:15:21 17° NE visible
26 Nov -0.7 18:47:43 10° NW 18:48:19 13° NW 18:48:19 13° NW visible
27 Nov -2.1 18:00:00 10° WNW 18:02:42 24° N 18:02:42 24° N visible
28 Nov -2.3 17:12:13 10° WNW 17:15:09 26° N 17:17:04 16° NE visible
28 Nov -0.6 18:49:46 10° NW 18:50:01 11° NW 18:50:01 11° NW visible
29 Nov -1.9 18:02:11 10° NW 18:04:23 22° NNW 18:04:23 22° NNW visible
30 Nov -2.2 17:14:30 10° NW 17:17:16 23° N 17:18:46 17° NE visible
30 Nov -0.5 18:51:33 10° NW 18:51:43 11° NW 18:51:43 11° NW visible
01 Dec -2.1 18:04:02 10° NW 18:06:07 25° NNW 18:06:07 25° NNW visible
02 Dec -2.4 17:16:29 10° NW 17:19:21 25° N 17:20:34 21° NE visible
02 Dec -0.6 18:53:11 10° WNW 18:53:31 12° NW 18:53:31 12° NW visible
03 Dec -2.7 18:05:40 10° NW 18:08:02 36° NNW 18:08:02 36° NNW visible
04 Dec -3.0 17:18:09 10° NW 17:21:19 36° NNE 17:22:38 25° ENE visible
04 Dec -0.6 18:54:57 10° WNW 18:55:36 15° WNW 18:55:36 15° WNW visible
